Skip Page Navigation
NASA JPL Caltech
NASA Logo - Jet Propulsion Laboratory + View the NASA Portal
+ Center for Near-Earth Object Studies
JPL Home Earth Solar System Stars & Galaxies Technology
JPL Solar System Dynamics
BODIES ORBITS EPHEMERIDES TOOLS PHYSICAL DATA DISCOVERY FAQ SITE MAP
IMPORTANT: The SSD Announcement email list is now available. Major changes are coming in the near future, including possible hostname and/or URL changes. To be notified of such changes, subscribe to this email list.

Please visit this page for more details.


JPL Small-Body Database Browser
Search: [ help ]  
146786 (2001 XF267)
Classification: Main-belt Asteroid          SPK-ID: 2146786
Ephemeris | Orbit Diagram | Orbital Elements | Mission Design | Physical Parameters | Discovery Circumstances | Close-Approach Data ]

[ show orbit diagram ]
Orbital Elements at Epoch 2458600.5 (2019-Apr-27.0) TDB
Reference: JPL 16 (heliocentric ecliptic J2000)
 Element Value Uncertainty (1-sigma)   Units 
e .08597076502725598 5.5135e-08  
a 3.110855767394451 3.2665e-08 au
q 2.843413117182099 1.8368e-07 au
i 12.95494033214608 6.0561e-06 deg
node 68.86892484137908 2.6771e-05 deg
peri 278.2417421188331 4.4247e-05 deg
M 167.8745895270596 3.4806e-05 deg
tp 2457665.953955600666
(2016-Oct-04.45395560)
0.000193 TDB
period 2004.094705050822
5.49
3.1566e-05
8.642e-08
d
yr
n .1796322295012854 2.8293e-09 deg/d
Q 3.378298417606803 3.5473e-08 au
  Orbit Determination Parameters
   # obs. used (total)      349  
   data-arc span      6729 days (18.42 yr)  
   first obs. used      2000-10-01  
   last obs. used      2019-03-05  
   planetary ephem.      DE431  
   SB-pert. ephem.      SB431-N16  
   condition code      0  
   norm. resid. RMS      .61896  
   source      ORB  
   producer      Otto Matic  
   solution date      2019-Jul-14 08:01:40  

Additional Information
 Earth MOID = 1.8745 au 
 Jupiter MOID = 2.003 au 
 T_jup = 3.174 
[ show covariance matrix ]

Ephemeris | Orbit Diagram | Orbital Elements | Mission Design | Physical Parameters | Discovery Circumstances | Close-Approach Data ]

Physical Parameter Table
Parameter Symbol Value Units Sigma Reference Notes
absolute magnitude H 14.9   n/a MPO436736  

146786 (2001 XF267)          Discovered 2001-Dec-09 by LINEAR at Socorro
Reference: 20070106/Numbers.arcLast Updated: 2007-01-09

[ show close-approach data ]
Ephemeris | Orbit Diagram | Orbital Elements | Mission Design | Physical Parameters | Discovery Circumstances | Close-Approach Data ]
ABOUT SSD CREDITS/AWARDS PRIVACY/COPYRIGHT GLOSSARY LINKS
FirstGov 2019-Dec-13 21:56 UT
(server date/time)  
NASA Home Page
Site Manager:   Ryan S. Park
Webmaster  Alan B. Chamberlin